Tiempo cada hora Abrera

Hoy, 22 Octubre, Jueves

Tiempo Temperatura Precipitaciones Viento Presión Humedad
00:00 +20°C° 0 mm 1 mps 747 mmHg 86%
01:00 +20°C° 0.2 mm 1 mps 747 mmHg 87%
02:00 +20°C° 0.2 mm 1 mps 747 mmHg 87%
03:00 +20°C° 0.2 mm 1 mps 747 mmHg 88%
04:00 +20°C° 0.1 mm 1 mps 747 mmHg 85%
05:00 +19°C° 0.1 mm 2 mps 747 mmHg 83%
06:00 +19°C° 0.1 mm 2 mps 747 mmHg 80%
07:00 +20°C° 0 mm 3 mps 747 mmHg 77%
08:00 +20°C° 0 mm 3 mps 748 mmHg 73%
09:00 +20°C° 0 mm 3 mps 748 mmHg 70%
10:00 +21°C° 0 mm 4 mps 748 mmHg 66%
11:00 +22°C° 0 mm 4 mps 747 mmHg 62%
12:00 +23°C° 0 mm 4 mps 747 mmHg 58%
13:00 +23°C° 0 mm 4 mps 747 mmHg 59%
14:00 +24°C° 0 mm 3 mps 747 mmHg 60%
15:00 +24°C° 0 mm 3 mps 747 mmHg 61%
16:00 +23°C° 0.4 mm 2 mps 747 mmHg 67%
17:00 +22°C° 0.4 mm 1 mps 747 mmHg 74%
18:00 +21°C° 0.4 mm 1 mps 747 mmHg 80%
19:00 +21°C° 0.3 mm 1 mps 747 mmHg 80%
20:00 +21°C° 0.3 mm 1 mps 748 mmHg 80%
21:00 +20°C° 0.3 mm 1 mps 748 mmHg 81%
22:00 +19°C° 0.9 mm 2 mps 748 mmHg 83%
23:00 +19°C° 0.9 mm 2 mps 748 mmHg 86%

Mañana, 23 Octubre, Viernes

Tiempo Temperatura Precipitaciones Viento Presión Humedad
00:00 +18°C° 0.9 mm 3 mps 748 mmHg 89%
01:00 +18°C° 0.2 mm 3 mps 748 mmHg 89%
02:00 +18°C° 0.2 mm 4 mps 748 mmHg 89%
03:00 +18°C° 0.2 mm 4 mps 748 mmHg 89%
04:00 +18°C° 0 mm 4 mps 748 mmHg 88%
05:00 +18°C° 0 mm 3 mps 748 mmHg 87%
06:00 +17°C° 0 mm 3 mps 748 mmHg 86%
07:00 +18°C° 0 mm 4 mps 748 mmHg 78%
08:00 +19°C° 0 mm 5 mps 749 mmHg 69%
09:00 +20°C° 0 mm 6 mps 749 mmHg 61%
10:00 +21°C° 0 mm 6 mps 749 mmHg 56%
11:00 +22°C° 0 mm 6 mps 749 mmHg 50%
12:00 +22°C° 0 mm 6 mps 749 mmHg 45%
13:00 +23°C° 0 mm 6 mps 749 mmHg 44%
14:00 +23°C° 0 mm 6 mps 749 mmHg 42%
15:00 +23°C° 0 mm 6 mps 749 mmHg 40%
16:00 +22°C° 0 mm 5 mps 749 mmHg 44%
17:00 +20°C° 0 mm 5 mps 750 mmHg 47%
18:00 +19°C° 0 mm 4 mps 750 mmHg 51%
19:00 +19°C° 0 mm 3 mps 751 mmHg 51%
20:00 +18°C° 0 mm 3 mps 751 mmHg 51%
21:00 +18°C° 0 mm 2 mps 752 mmHg 51%
22:00 +17°C° 0 mm 2 mps 752 mmHg 53%
23:00 +17°C° 0 mm 2 mps 752 mmHg 55%

Pasado mañana, 24 Octubre, Sábado

Tiempo Temperatura Precipitaciones Viento Presión Humedad
00:00 +16°C° 0 mm 2 mps 752 mmHg 57%
01:00 +16°C° 0 mm 2 mps 752 mmHg 60%
02:00 +15°C° 0 mm 1 mps 753 mmHg 62%
03:00 +15°C° 0 mm 1 mps 753 mmHg 65%
04:00 +15°C° 0 mm 1 mps 753 mmHg 67%
05:00 +15°C° 0 mm 1 mps 753 mmHg 69%
06:00 +14°C° 0 mm 1 mps 753 mmHg 71%
07:00 +15°C° 0 mm 1 mps 753 mmHg 68%
08:00 +18°C° 0 mm 1 mps 753 mmHg 65%
09:00 +19°C° 0 mm 1 mps 753 mmHg 62%
10:00 +20°C° 0 mm 1 mps 753 mmHg 58%
11:00 +20°C° 0 mm 2 mps 752 mmHg 54%
12:00 +21°C° 0 mm 2 mps 752 mmHg 50%
13:00 +21°C° 0 mm 2 mps 752 mmHg 47%
14:00 +21°C° 0 mm 2 mps 751 mmHg 45%
15:00 +21°C° 0 mm 3 mps 751 mmHg 43%
16:00 +20°C° 0 mm 3 mps 750 mmHg 47%
17:00 +19°C° 0 mm 3 mps 750 mmHg 51%
18:00 +18°C° 0 mm 3 mps 750 mmHg 55%
19:00 +17°C° 0 mm 3 mps 750 mmHg 57%
20:00 +17°C° 0 mm 2 mps 750 mmHg 59%
21:00 +17°C° 0 mm 2 mps 750 mmHg 61%
22:00 +16°C° 0 mm 2 mps 750 mmHg 64%
23:00 +16°C° 0 mm 3 mps 749 mmHg 67%

, 25 Octubre, Domingo

Tiempo Temperatura Precipitaciones Viento Presión Humedad
00:00 +16°C° 0 mm 3 mps 749 mmHg 70%
01:00 +15°C° 0 mm 2 mps 748 mmHg 70%
02:00 +15°C° 0 mm 2 mps 748 mmHg 69%
03:00 +15°C° 0 mm 2 mps 748 mmHg 68%
04:00 +15°C° 0 mm 2 mps 747 mmHg 68%
05:00 +14°C° 0 mm 2 mps 747 mmHg 68%
06:00 +14°C° 0 mm 2 mps 747 mmHg 68%
07:00 +16°C° 0 mm 3 mps 747 mmHg 62%
08:00 +17°C° 0 mm 4 mps 746 mmHg 56%
09:00 +17°C° 0 mm 5 mps 746 mmHg 51%
10:00 +19°C° 0 mm 5 mps 746 mmHg 47%
11:00 +20°C° 0 mm 6 mps 745 mmHg 44%
12:00 +21°C° 0 mm 7 mps 745 mmHg 40%
13:00 +21°C° 0 mm 7 mps 744 mmHg 41%
14:00 +21°C° 0 mm 6 mps 744 mmHg 42%
15:00 +21°C° 0 mm 6 mps 743 mmHg 43%
16:00 +20°C° 0 mm 5 mps 743 mmHg 49%
17:00 +19°C° 0 mm 4 mps 743 mmHg 55%
18:00 +18°C° 0 mm 3 mps 744 mmHg 61%
19:00 +17°C° 0 mm 4 mps 744 mmHg 58%
20:00 +16°C° 0 mm 5 mps 744 mmHg 55%
21:00 +16°C° 0 mm 6 mps 744 mmHg 52%
22:00 +15°C° 0 mm 6 mps 744 mmHg 51%
23:00 +15°C° 0 mm 6 mps 744 mmHg 50%

25 Octubre, Domingo

Tiempo Temperatura Precipitaciones Viento Presión Humedad
00:00 +16°C° 0 mm 3 mps 749 mmHg 70%
01:00 +15°C° 0 mm 2 mps 748 mmHg 70%
02:00 +15°C° 0 mm 2 mps 748 mmHg 69%
03:00 +15°C° 0 mm 2 mps 748 mmHg 68%
04:00 +15°C° 0 mm 2 mps 747 mmHg 68%
05:00 +14°C° 0 mm 2 mps 747 mmHg 68%
06:00 +14°C° 0 mm 2 mps 747 mmHg 68%
07:00 +16°C° 0 mm 3 mps 747 mmHg 62%
08:00 +17°C° 0 mm 4 mps 746 mmHg 56%
09:00 +17°C° 0 mm 5 mps 746 mmHg 51%
10:00 +19°C° 0 mm 5 mps 746 mmHg 47%
11:00 +20°C° 0 mm 6 mps 745 mmHg 44%
12:00 +21°C° 0 mm 7 mps 745 mmHg 40%
13:00 +21°C° 0 mm 7 mps 744 mmHg 41%
14:00 +21°C° 0 mm 6 mps 744 mmHg 42%
15:00 +21°C° 0 mm 6 mps 743 mmHg 43%
16:00 +20°C° 0 mm 5 mps 743 mmHg 49%
17:00 +19°C° 0 mm 4 mps 743 mmHg 55%
18:00 +18°C° 0 mm 3 mps 744 mmHg 61%
19:00 +17°C° 0 mm 4 mps 744 mmHg 58%
20:00 +16°C° 0 mm 5 mps 744 mmHg 55%
21:00 +16°C° 0 mm 6 mps 744 mmHg 52%
22:00 +15°C° 0 mm 6 mps 744 mmHg 51%
23:00 +15°C° 0 mm 6 mps 744 mmHg 50%

26 Octubre, Lunes

Tiempo Temperatura Precipitaciones Viento Presión Humedad
00:00 +14°C° 0 mm 7 mps 745 mmHg 49%
01:00 +13°C° 0 mm 6 mps 745 mmHg 51%
02:00 +13°C° 0 mm 6 mps 745 mmHg 53%
03:00 +12°C° 0 mm 5 mps 745 mmHg 55%
04:00 +12°C° 0 mm 4 mps 745 mmHg 58%
05:00 +11°C° 0 mm 4 mps 745 mmHg 60%
06:00 +11°C° 0 mm 4 mps 745 mmHg 62%
07:00 +11°C° 0 mm 4 mps 745 mmHg 60%
08:00 +12°C° 0 mm 4 mps 745 mmHg 57%
09:00 +13°C° 0 mm 5 mps 745 mmHg 54%
10:00 +14°C° 0 mm 4 mps 745 mmHg 50%
11:00 +15°C° 0 mm 4 mps 745 mmHg 47%
12:00 +17°C° 0 mm 4 mps 745 mmHg 43%
13:00 +17°C° 0 mm 4 mps 744 mmHg 43%
14:00 +16°C° 0 mm 5 mps 744 mmHg 43%
15:00 +16°C° 0 mm 5 mps 744 mmHg 42%
16:00 +15°C° 0.1 mm 5 mps 744 mmHg 47%
17:00 +14°C° 0.1 mm 5 mps 744 mmHg 51%
18:00 +13°C° 0.1 mm 5 mps 745 mmHg 56%
19:00 +12°C° 0 mm 4 mps 745 mmHg 58%
20:00 +12°C° 0 mm 3 mps 745 mmHg 61%
21:00 +11°C° 0 mm 3 mps 746 mmHg 63%
22:00 +12°C° 0 mm 2 mps 746 mmHg 64%
23:00 +10°C° 0 mm 2 mps 746 mmHg 65%

27 Octubre, Martes

Tiempo Temperatura Precipitaciones Viento Presión Humedad
00:00 +10°C° 0 mm 2 mps 746 mmHg 65%
01:00 +9°C° 0 mm 2 mps 746 mmHg 65%
02:00 +9°C° 0 mm 3 mps 746 mmHg 65%
03:00 +9°C° 0 mm 3 mps 746 mmHg 64%
04:00 +9°C° 0 mm 3 mps 746 mmHg 63%
05:00 +8°C° 0 mm 3 mps 746 mmHg 62%
06:00 +8°C° 0 mm 3 mps 747 mmHg 60%
07:00 +9°C° 0 mm 2 mps 747 mmHg 54%
08:00 +12°C° 0 mm 2 mps 747 mmHg 48%
09:00 +13°C° 0 mm 2 mps 747 mmHg 42%
10:00 +15°C° 0 mm 2 mps 747 mmHg 38%
11:00 +16°C° 0 mm 2 mps 747 mmHg 33%
12:00 +18°C° 0 mm 2 mps 747 mmHg 29%
13:00 +18°C° 0 mm 2 mps 747 mmHg 28%
14:00 +18°C° 0 mm 3 mps 747 mmHg 28%
15:00 +18°C° 0 mm 3 mps 747 mmHg 28%
16:00 +17°C° 0 mm 2 mps 747 mmHg 31%
17:00 +16°C° 0 mm 2 mps 747 mmHg 35%
18:00 +15°C° 0 mm 1 mps 747 mmHg 39%
19:00 +14°C° 0 mm 1 mps 748 mmHg 42%
20:00 +14°C° 0 mm 1 mps 748 mmHg 45%
21:00 +13°C° 0 mm 1 mps 748 mmHg 49%
22:00 +13°C° 0 mm 1 mps 748 mmHg 50%
23:00 +13°C° 0 mm 1 mps 748 mmHg 52%
Mostrar más

Necesitamos Su Consentimiento

Meteoprog y nuestros Proveedores de Servicios pueden almacenar y acceder a sus datos personales como cookies, identificadores de dispositivo u otras tecnologías similares de su dispositivo y procesar dichos datos para personalizar contenido y anuncios, además de ofrecer funciones de redes sociales y analizar el tráfico.

  • Almacenar y/o acceder a información en su dispositivo

    Se puede almacenar o acceder a cookies, identificadores de dispositivo u otra información de su dispositivo para los fines anteriormente indicados.

  • Anuncios y contenido personalizados, medición de anuncios y contenido, percepciones del público, y desarrollo de productos

    Los anuncios y el contenido pueden personalizarse en base a su perfil. Se pueden añadir más datos para personalizar mejor los anuncios y contenidos. Se puede medir el rendimiento de los anuncios y contenidos. Se puede obtener la percepción sobre el público que ha visto los anuncios y contenidos. Dichos datos pueden usarse para desarrollar o mejorar la experiencia del usuario, sistemas y software.

Al hacer clic en ‘Estoy De Acuerdo’ usted permitirá el uso de las cookies, identificadores de dispositivo, balizas web u otras tecnologías similares indicadas. Su configuración puede cambiarse desde el navegador de su dispositivo.

Para ciertos fines, los intereses legítimos pueden ser considerados por encima del consentimiento. Puede leer más sobre ello en nuestra Política de Privacidad y Cookies.